Air Force Academy, CO

5:17 PM MST on February 19, 2018 (GMT -0700)
Usaf Academy

Weather History for KAFF - December, 2013

Change the Weather History Date:

Monday, December 23, 2013

  Actual Average Record
Temperature  
Mean Temperature 27 °F -  
Max Temperature 41 °F 40 °F 57 °F (2005)
Min Temperature 13 °F 17 °F -1 °F (2011)
Degree Days  
Heating Degree Days 38    
Moisture  
Dew Point 15 °F    
Average Humidity 76    
Maximum Humidity 100    
Minimum Humidity 36    
Precipitation  
Precipitation 0.00 in - - ()
Sea Level Pressure  
Sea Level Pressure 30.29 in    
Wind  
Wind Speed 10 mph (ESE)    
Max Wind Speed 23 mph    
Max Gust Speed 39 mph    
Visibility 9 miles    
Events Snow    
Averages and records for this station are not official NWS values.
T = Trace of Precipitation, MM = Missing Value Source: NWS Daily Summary

Daily Weather History Graph

Daily Weather History Graph

Search for Another Location

Airport or City:

Trip Planner

Search our weather history database for the weather conditions in past years. The results will help you decide how hot, cold, wet, or windy it might be!

Date:

Astronomy

Dec. 23, 2013 Rise Set
Actual Time 7:15 AM MST 4:41 PM MST
Civil Twilight 6:45 AM MST 5:11 PM MST
Nautical Twilight 6:11 AM MST 5:45 PM MST
Astronomical Twilight 5:39 AM MST 6:17 PM MST
Moon 10:50 PM MST (12/23) 10:44 AM MST (12/23)
Length of Visible Light 10h 26m
Length of Day
9h 26m
Waning Gibbous, 67% of the Moon is Illuminated
Dec 23
Waning Gibbous
Dec 25
Last Quarter
Jan 1
New
Jan 7
First Quarter
Jan 15
Full

Hourly Weather History & Observations

Time (MST) Temp. Windchill Dew Point Humidity Pressure Visibility Wind Dir Wind Speed Gust Speed Precip Events Conditions
12:38 AM 21.2 °F 7.8 °F 15.8 °F 80% 30.11 in 10.0 mi North 15.0 mph 24.2 mph N/A   Mostly Cloudy
12:58 AM 20.8 °F 6.8 °F 15.6 °F 80% 30.23 in 10.0 mi North 16.1 mph - N/A   Mostly Cloudy
1:58 AM 20.8 °F 8.4 °F 16.5 °F 83% 30.25 in 10.0 mi North 12.7 mph - N/A   Overcast
2:18 AM 19.4 °F 6.0 °F 15.8 °F 86% 30.13 in 10.0 mi North 13.8 mph - N/A   Scattered Clouds
2:58 AM 18.5 °F 6.1 °F 15.1 °F 86% 30.26 in 10.0 mi North 11.5 mph - N/A   Clear
3:58 AM 16.2 °F 5.5 °F 12.6 °F 86% 30.28 in 10.0 mi North 8.1 mph - N/A   Clear
4:58 AM 14.2 °F 4.1 °F 10.0 °F 84% 30.31 in 10.0 mi North 6.9 mph - N/A   Clear
5:58 AM 13.5 °F - 9.3 °F 84% 30.33 in 10.0 mi SE 2.3 mph - N/A   Clear
6:58 AM 14.7 °F 1.4 °F 12.2 °F 90% 30.39 in 10.0 mi SSE 11.5 mph - N/A   Mostly Cloudy
7:03 AM 15.8 °F 2.7 °F 14.0 °F 93% 30.22 in 10.0 mi SSE 11.5 mph - N/A   Mostly Cloudy
7:23 AM 15.8 °F 6.1 °F 15.8 °F 100% 30.22 in 4.0 mi SSE 6.9 mph - N/A   Overcast
7:39 AM 17.6 °F 7.3 °F 15.8 °F 93% 30.23 in 4.0 mi SSE 8.1 mph - N/A Snow Light Snow
7:58 AM 17.6 °F 10.7 °F 15.6 °F 92% 30.37 in 3.0 mi SE 4.6 mph - N/A Snow Light Snow
8:58 AM 18.7 °F 8.6 °F 17.1 °F 93% 30.41 in 3.0 mi SSE 8.1 mph - 0.00 in Snow Light Snow
9:58 AM 19.6 °F 9.7 °F 16.5 °F 88% 30.44 in 3.0 mi SSE 8.1 mph - 0.00 in Snow Light Snow
10:22 AM 19.4 °F 9.5 °F 15.8 °F 86% 30.27 in 4.0 mi SSE 8.1 mph - N/A Snow Light Snow
10:58 AM 20.3 °F 10.6 °F 16.2 °F 84% 30.40 in 5.0 mi SE 8.1 mph - 0.00 in Snow Light Snow
11:40 AM 21.2 °F 11.7 °F 15.8 °F 80% 30.25 in 5.0 mi SSE 8.1 mph - N/A   Overcast
11:55 AM 21.2 °F 12.6 °F 15.8 °F 80% 30.24 in 10.0 mi South 6.9 mph - N/A   Overcast
11:58 AM 20.8 °F 10.4 °F 16.0 °F 81% 30.42 in 10.0 mi South 9.2 mph - N/A   Overcast
12:58 PM 20.8 °F 12.1 °F 16.9 °F 85% 30.40 in 10.0 mi Variable 6.9 mph - N/A   Overcast
1:43 PM 24.8 °F 19.1 °F 17.6 °F 74% 30.20 in 10.0 mi Variable 4.6 mph - N/A   Scattered Clouds
1:58 PM 23.9 °F 15.8 °F 16.7 °F 74% 30.36 in 10.0 mi South 6.9 mph - N/A   Partly Cloudy
2:58 PM 25.0 °F 17.1 °F 17.2 °F 72% 30.38 in 10.0 mi South 6.9 mph - N/A   Clear
3:58 PM 24.8 °F - 17.2 °F 73% 30.37 in 10.0 mi Variable 2.3 mph - N/A   Clear
4:58 PM 21.9 °F 17.2 °F 16.7 °F 80% 30.40 in 10.0 mi Variable 3.5 mph - N/A   Clear
5:58 PM 19.0 °F 13.9 °F 14.7 °F 83% 30.39 in 10.0 mi NW 3.5 mph - N/A   Clear
6:58 PM 20.3 °F 10.6 °F 14.9 °F 80% 30.39 in 10.0 mi NNE 8.1 mph - N/A   Clear
7:58 PM 20.8 °F - 14.4 °F 76% 30.36 in 10.0 mi Variable 2.3 mph - N/A   Clear
8:58 PM 20.1 °F 12.3 °F 13.8 °F 77% 30.35 in 10.0 mi East 5.8 mph - N/A   Clear
9:58 PM 37.8 °F 32.5 °F 15.3 °F 40% 30.25 in 10.0 mi NNE 6.9 mph - N/A   Clear
10:58 PM 39.4 °F 37.2 °F 15.3 °F 38% 30.22 in 10.0 mi Variable 3.5 mph - N/A   Clear
11:35 PM 41.0 °F 34.3 °F 15.8 °F 36% 30.12 in 10.0 mi NW 11.5 mph 24.2 mph N/A   Clear
11:43 PM 41.0 °F 31.1 °F 15.8 °F 36% 30.12 in 10.0 mi West 23.0 mph 39.1 mph N/A   Clear
11:47 PM 41.0 °F 33.5 °F 15.8 °F 36% 30.12 in 10.0 mi NW 13.8 mph 39.1 mph N/A   Clear
11:58 PM 41.2 °F 36.0 °F 15.8 °F 36% 30.19 in 10.0 mi NNW 8.1 mph 27.6 mph N/A   Clear